Home > Weather > Poznan > Past weeks

Flag for Poland Weather for the Past 2 Weeks in Poznan, Poland

Now
43 °F

Sunny.


Feels Like: 36 °F
Forecast: 42 / 49 °F
Wind: 14 mph from South

Location: Poznan Airport

Current Time: Feb 8, 2016 at 9:33:35 AM

Latest Report: Feb 8, 2016 at 9:00 AM


Visibility: 10 mi

Pressure: 29.65 "Hg

Humidity: 76%

Dew point: 36 °F

Location of PoznanLocation

Historic Weather in Poznan — Graph

°F

Poznan Temperature Yesterday

Maximum temperature yesterday: 48 °F (at 12:00 PM)
Minimum temperature yesterday: 37 °F (at 7:00 AM)
Average temperature yesterday: 43 °F

High & Low Weather Summary for the Past Weeks

 TemperatureHumidityPressure
High54 °F (Feb 2, 1:30 PM)94% (Feb 1, 8:00 PM)30.42 "Hg (Feb 1, 8:00 PM)
Low32 °F (Jan 29, 3:00 AM)46% (Jan 25, 11:00 PM)29.53 "Hg (Jan 30, 10:00 PM)
Average42 °F80%29.96 "Hg
* Reported Jan 24 8:00 AM — Feb 8 8:30 AM, Poznan, Weather by CustomWeather, © 2016

Note: Actual official high and low records may vary slightly from our data, if they occured in-between our weather recording intervals... More about our weather records

Advertising

Poznan Weather History for the Previous 24 Hours

 ConditionsComfort  
Time TempWeatherWind HumidityBarometerVisibility
8:30 AM
Mon, Feb 8
43 °FSunny.13 mph76%29.68 "Hg10 mi
8:00 AM43 °FSunny.13 mph76%29.68 "Hg10 mi
7:30 AM43 °FSunny.9 mph81%29.68 "Hg10 mi
7:00 AM43 °FClear.9 mph81%29.68 "Hg10 mi
6:30 AM43 °FClear.7 mph81%29.71 "Hg10 mi
6:00 AM43 °FClear.8 mph87%29.68 "Hg10 mi
5:30 AM43 °FClear.7 mph87%29.71 "Hg10 mi
5:00 AM43 °FClear.7 mph87%29.71 "Hg10 mi
4:30 AM43 °FClear.7 mph87%29.71 "Hg10 mi
4:00 AM43 °FClear.7 mph87%29.71 "Hg10 mi
3:00 AM41 °FLight rain. Passing clouds.6 mph93%29.71 "HgN/A
2:30 AM41 °FLight rain. Passing clouds.7 mph87%29.74 "HgN/A
2:00 AM41 °FLight rain. Passing clouds.6 mph87%29.71 "HgN/A
1:30 AM41 °FPassing clouds.8 mph87%29.71 "HgN/A
1:00 AM41 °FClear.9 mph81%29.71 "Hg10 mi
12:30 AM41 °FClear.9 mph81%29.71 "Hg10 mi
12:00 AM41 °FClear.12 mph81%29.71 "Hg10 mi
11:30 PM
Sun, Feb 7
41 °FClear.10 mph81%29.68 "Hg10 mi
11:00 PM41 °FClear.7 mph81%29.68 "Hg10 mi
10:30 PM41 °FClear.7 mph81%29.68 "Hg10 mi
10:00 PM41 °FClear.7 mph81%29.68 "Hg10 mi
9:30 PM41 °FClear.9 mph81%29.68 "Hg10 mi
9:00 PM41 °FClear.5 mph81%29.65 "Hg10 mi
8:30 PM41 °FClear.3 mph81%29.65 "Hg10 mi
8:00 PM41 °FClear.5 mph81%29.65 "Hg10 mi
7:30 PM43 °FClear.6 mph76%29.65 "Hg10 mi
7:00 PM43 °FClear.5 mph76%29.65 "Hg10 mi
6:30 PM43 °FClear.5 mph76%29.65 "Hg10 mi
6:00 PM45 °FClear.6 mph71%29.68 "Hg10 mi
5:30 PM45 °FClear.6 mph71%29.65 "Hg10 mi
5:00 PM46 °FClear.6 mph66%29.68 "Hg10 mi
4:30 PM48 °FSunny.12 mph62%29.68 "Hg10 mi
4:00 PM48 °FSunny.10 mph62%29.65 "Hg10 mi
3:30 PM48 °FPassing clouds.10 mph62%29.65 "HgN/A
3:00 PM48 °FPassing clouds.10 mph62%29.68 "HgN/A
2:30 PM48 °FPassing clouds.12 mph62%29.68 "HgN/A
2:00 PM48 °FPassing clouds.10 mph62%29.68 "HgN/A
1:30 PM48 °FPassing clouds.10 mph62%29.68 "HgN/A
1:00 PM48 °FPassing clouds.9 mph62%29.71 "HgN/A
12:30 PM48 °FSunny.9 mph62%29.71 "Hg10 mi
12:00 PM48 °FPassing clouds.9 mph62%29.74 "HgN/A
11:30 AM46 °FSunny.14 mph66%29.74 "Hg10 mi
11:00 AM46 °FSunny.10 mph66%29.74 "Hg10 mi
10:30 AM45 °FSunny.9 mph71%29.74 "Hg10 mi
10:00 AM43 °FSunny.6 mph76%29.74 "Hg10 mi
9:30 AM41 °FSunny.7 mph76%29.74 "Hg10 mi
9:00 AM39 °FPassing clouds.6 mph81%29.77 "HgN/A
Weather by CustomWeather, © 2016

See weather overviewHow to use our weather pages